This is the latest recevied weather packets stored in our database for station/object SR5NLK-1. If no packets are shown the sender has not sent any weather packets the latest 10 day(s).
| Time | Temp. | Humidity | Pressure | Rain* | Wind** | Luminosity | Snow |
|---|---|---|---|---|---|---|---|
| 1778113828 | 15° C | 77% | 962.3 hPa | 0 mm | - | - | - |
| 1778113649 | 15.56° C | 76% | 1058.5 hPa | 0 mm | - | - | - |
| 1778113349 | 15.56° C | 75% | 990.1 hPa | 0 mm | - | - | - |
| 1778113049 | 15.56° C | 74% | 1001 hPa | 0 mm | - | - | - |
| 1778112749 | 16.11° C | 72% | 1042.8 hPa | 0 mm | - | - | - |
| 1778112450 | 16.67° C | 70% | 1055.3 hPa | 0 mm | - | - | - |
| 1778112149 | 17.22° C | 69% | 926.7 hPa | 0 mm | - | - | - |
| 1778111848 | 17.22° C | 68% | 968.6 hPa | 0 mm | - | - | - |
| 1778111549 | 17.22° C | 67% | 1046 hPa | 0 mm | - | - | - |
| 1778111249 | 16.67° C | 67% | 1024.2 hPa | 0 mm | - | - | - |
| 1778110949 | 16.67° C | 67% | 1022.8 hPa | 0 mm | - | - | - |
| 1778110650 | 16.67° C | 66% | 1001 hPa | 0 mm | - | - | - |
| 1778110349 | 16.67° C | 66% | 1052.2 hPa | 0 mm | - | - | - |
| 1778110049 | 16.67° C | 66% | 1007.3 hPa | 0 mm | - | - | - |
| 1778109868 | 16.67° C | 66% | 994.7 hPa | 0 mm | - | - | - |
| 1778109749 | 16.67° C | 66% | 977.9 hPa | 0 mm | - | - | - |
| 1778109449 | 16.67° C | 66% | 1001 hPa | 0 mm | - | - | - |
| 1778109149 | 16.67° C | 66% | 1039.7 hPa | 0 mm | - | - | - |
| 1778108849 | 16.67° C | 66% | 1052.2 hPa | 0 mm | - | - | - |
| 1778108549 | 16.67° C | 66% | 1090.9 hPa | 0 mm | - | - | - |
| 1778108249 | 16.67° C | 66% | 1045.9 hPa | 0 mm | - | - | - |
| 1778107949 | 16.67° C | 66% | 952.9 hPa | 0 mm | - | - | - |
| 1778107888 | 16.67° C | 66% | 1007.3 hPa | 0 mm | - | - | - |
| 1778107649 | 16.67° C | 66% | 1050.8 hPa | 0 mm | - | - | - |
| 1778107349 | 16.67° C | 66% | 959.2 hPa | 0 mm | - | - | - |
* Rain latest hour (hover to see other rain measurements)
** Current wind speed in m/s (hover to see current wind gust speed)